Wind_Speed
26 26 25 24 24 23 22 22 22 22 22 22 21 20 20 20 20 20 19 18 19 19 18 18 16 15 15 15 15 15 13 13 13 12 13 13 12 12 12 12 12 10
27 26 25 24 24 23 23 23 23 22 23 23 22 21 20 20 20 21 20 19 19 19 19 19 18 17 16 16 16 16 15 14 14 13 13 14 13 13 14 14 13 12
28 27 26 26 25 25 24 24 23 23 23 23 23 22 20 19 20 21 22 21 20 19 20 19 19 19 17 17 18 18 16 16 15 14 14 15 14 13 14 14 14 14
29 29 28 27 26 25 24 23 23 23 23 23 23 23 21 20 20 21 23 23 21 20 20 20 20 19 18 18 19 18 16 16 16 15 15 15 15 14 14 15 15 15
31 30 29 28 26 25 24 24 25 24 24 24 24 23 23 22 21 21 22 23 23 22 20 20 20 20 18 19 20 18 17 17 16 16 16 16 15 15 15 15 16 16
30 30 30 28 27 26 25 26 26 26 25 25 25 24 23 23 23 23 22 22 23 22 22 21 21 20 20 20 21 19 17 17 17 17 18 17 16 16 15 16 17 17
30 31 30 29 28 27 27 27 26 26 26 25 24 24 24 24 24 24 24 23 22 22 22 22 21 21 21 21 21 20 19 18 18 18 19 18 17 17 17 16 17 18
31 31 30 30 29 28 28 27 26 27 27 25 24 25 25 25 25 25 25 24 23 22 22 22 22 22 21 21 21 21 20 19 19 20 20 20 19 19 18 17 17 18
32 31 30 30 30 29 29 29 28 27 27 27 26 25 25 25 25 24 24 25 24 23 22 22 22 22 22 22 22 22 22 21 20 21 22 21 22 21 20 19 18 19
32 32 31 31 31 30 30 30 29 28 27 28 28 26 24 25 25 25 24 24 25 24 23 23 23 23 22 22 22 23 24 23 22 22 23 23 23 22 21 20 20 20
33 33 32 33 33 31 31 31 30 28 27 28 28 27 25 24 25 25 25 24 25 25 24 24 24 24 23 23 23 23 24 24 23 23 24 24 24 23 22 22 22 21
34 34 34 34 34 33 32 32 31 30 28 27 28 28 27 26 25 25 26 26 26 25 25 25 25 25 25 24 24 23 24 24 24 24 24 24 24 24 23 23 23 22
35 35 35 35 35 34 32 32 31 31 30 29 28 28 28 28 27 26 26 26 27 27 26 26 25 25 25 25 25 24 24 24 24 24 24 24 24 24 24 23 23 23
35 35 36 35 34 33 33 32 31 31 31 30 28 28 29 29 29 28 26 26 27 28 28 27 26 26 26 26 26 24 24 24 25 24 23 23 24 24 24 24 23 24
33 33 33 33 32 31 32 32 31 31 31 30 29 28 28 29 29 29 27 26 28 28 29 28 27 27 28 28 28 26 25 24 25 26 25 24 23 24 24 24 24 24
32 31 30 31 32 31 31 32 31 30 30 30 30 29 28 28 28 29 28 27 28 28 28 28 28 29 31 33 32 30 26 24 25 25 26 25 24 24 24 24 24 25
31 30 30 30 32 32 31 31 31 30 30 30 30 29 29 28 28 29 29 28 27 28 29 29 29 31 34 36 36 35 30 26 24 25 25 26 26 25 25 24 24 25
30 29 30 30 31 32 31 30 31 30 29 29 29 29 29 29 29 29 30 30 28 28 29 29 30 33 36 37 38 39 36 29 24 23 25 26 26 26 26 25 24 24
29 29 30 30 31 32 30 30 30 30 30 30 29 29 29 30 30 30 30 30 30 29 29 29 29 32 37 39 39 40 40 36 28 24 25 26 27 27 27 26 25 24
29 30 30 30 30 30 29 30 30 30 30 30 29 29 29 29 30 30 30 30 31 30 29 29 29 31 35 39 40 40 41 40 34 27 26 27 27 28 28 27 26 25
29 30 29 28 28 28 29 30 30 30 30 30 29 28 29 29 29 30 30 30 30 30 29 29 30 31 34 36 39 39 40 41 38 32 28 28 27 28 28 27 27 27
30 29 28 27 27 28 29 30 30 30 30 29 29 28 28 28 28 30 30 30 30 30 31 31 30 32 35 36 37 38 38 40 41 35 31 29 28 28 28 26 27 28
28 27 27 27 26 27 29 30 30 30 29 28 29 28 28 28 28 28 29 29 30 30 31 31 29 30 35 36 37 37 38 41 42 36 32 31 29 29 28 27 29 31
25 25 25 26 27 28 29 29 29 28 27 27 28 28 29 28 27 26 26 28 29 30 30 29 28 29 33 36 38 39 39 41 41 35 33 33 30 29 29 28 30 32
24 25 25 25 27 28 27 26 25 25 24 25 26 26 27 27 25 25 25 26 27 28 29 29 28 30 33 36 39 41 41 41 38 34 35 34 30 29 31 31 30 31
23 24 25 25 25 25 24 23 23 23 24 24 25 25 25 25 25 25 25 24 25 27 29 29 31 34 36 37 40 42 43 43 38 34 35 34 31 31 31 31 31 30
Wind_Direction
206 207 207 207 209 210 209 209 209 208 210 212 214 216 217 216 215 213 213 212 211 212 214 212 210 215 221 220 215 214 214 214 214 212 208 205 204 204 205 204 205 209
207 207 206 206 208 209 209 210 210 209 211 214 216 217 217 215 213 212 212 211 211 213 213 214 212 212 217 218 215 216 216 215 214 213 210 207 204 205 206 205 206 207
206 207 207 207 208 209 209 209 210 211 213 215 216 217 216 214 212 213 214 213 212 213 213 214 215 214 216 218 217 218 217 214 213 213 213 209 205 207 207 206 208 206
205 207 208 209 210 209 209 208 210 211 213 214 215 215 215 214 211 212 215 215 213 212 212 213 215 214 214 217 217 217 216 216 214 212 214 211 205 207 209 206 208 207
205 207 208 209 210 209 208 209 211 211 212 213 214 214 213 212 211 210 212 213 213 213 213 212 213 212 211 212 215 215 213 215 215 212 213 213 206 207 210 208 207 207
205 206 208 209 209 207 208 210 212 212 212 213 212 212 212 211 212 212 211 212 214 214 214 213 212 211 209 209 212 212 209 212 215 212 213 214 211 210 210 209 208 207
204 206 207 209 208 207 209 211 212 212 213 213 212 211 211 211 212 213 212 213 214 214 213 213 211 209 207 206 208 209 207 209 211 211 213 216 215 213 211 210 208 208
203 205 206 208 208 207 209 211 211 212 213 212 212 211 210 210 211 213 213 214 214 214 213 212 210 208 207 204 206 207 205 206 207 208 213 217 218 216 212 209 208 210
202 203 204 206 206 207 209 211 211 211 211 211 211 212 211 211 212 212 213 213 214 214 212 212 211 210 209 206 206 207 205 205 206 206 210 215 218 218 213 209 209 210
200 202 203 205 207 208 209 211 212 211 211 211 212 213 211 211 213 213 212 211 212 212 212 212 211 210 210 209 208 209 207 207 206 206 208 212 215 217 214 212 210 211
199 201 203 205 207 209 211 212 213 212 212 211 213 214 213 211 212 212 211 210 211 212 212 212 212 211 212 211 210 210 209 209 208 208 209 211 214 217 216 214 213 213
200 201 203 206 208 210 211 213 213 213 213 212 213 213 213 213 212 212 211 210 212 213 213 213 213 212 212 213 212 211 210 209 209 210 212 213 215 218 218 216 215 215
200 201 204 207 208 209 211 212 213 213 213 213 213 214 214 214 214 213 211 211 212 214 214 215 214 213 213 214 213 212 210 209 210 211 212 214 216 219 219 218 216 217
199 201 203 205 206 207 208 210 212 212 212 213 213 213 214 215 215 214 212 211 212 215 216 215 215 214 213 212 214 213 210 209 210 211 212 213 216 219 220 220 219 219
197 200 202 203 204 204 206 208 210 210 211 212 212 213 214 215 215 214 212 210 211 214 215 215 215 214 213 212 211 211 211 211 211 211 212 213 215 218 220 221 220 221
195 198 199 200 201 202 204 206 208 209 210 211 211 213 214 214 214 214 213 211 210 211 212 213 214 216 218 218 214 211 209 210 211 211 212 214 215 218 220 220 221 223
193 196 197 198 200 201 203 205 206 208 209 209 210 211 212 213 213 214 215 214 212 211 212 213 214 219 222 221 220 216 211 208 210 211 211 214 216 217 219 221 221 223
193 194 195 197 199 200 202 203 205 207 208 208 209 210 211 212 213 214 215 215 214 214 214 214 217 222 224 222 222 221 216 210 211 212 212 215 217 217 219 221 220 221
193 194 196 198 199 199 201 202 204 206 208 208 209 210 211 213 214 215 215 215 216 216 216 217 219 223 225 224 223 223 220 216 213 215 216 217 218 218 218 218 217 218
194 195 198 199 199 199 200 203 205 207 208 210 211 211 212 213 215 216 216 216 217 217 218 220 220 222 225 225 224 224 223 220 217 217 220 221 220 219 217 217 216 215
197 198 199 199 199 199 201 205 208 209 210 211 213 213 214 215 216 217 218 218 218 218 219 222 222 222 224 226 226 224 223 222 220 219 222 224 223 220 218 217 217 215
200 200 200 200 199 200 203 207 209 210 210 210 213 215 216 217 217 218 219 219 219 219 221 223 224 223 224 225 225 224 222 222 220 219 221 224 224 223 220 219 221 219
201 201 200 200 200 201 205 208 209 210 209 209 211 214 216 217 218 220 220 220 220 220 222 224 225 225 224 225 225 223 221 220 218 217 220 223 224 225 223 222 223 222
199 200 199 200 201 204 207 209 210 211 209 209 211 214 218 220 220 221 221 221 222 222 223 225 228 229 227 225 225 224 220 217 215 215 219 221 222 224 225 224 224 224
198 200 200 201 204 208 211 213 213 213 212 212 214 217 221 222 222 224 224 223 224 225 225 227 231 233 230 225 223 221 219 216 214 216 221 222 220 222 225 226 225 224
199 200 202 205 208 210 213 214 213 214 215 215 217 220 223 224 224 225 227 226 226 227 225 226 231 234 233 228 223 221 219 215 212 217 223 223 221 222 225 226 224 223
Height
793 795 797 800 802 803 805 807 808 810 812 813 815 816 817 819 821 822 824 825 827 828 830 832 834 835 837 838 839 840 842 843 844 845 846 847 848 849 850 851 851 852
790 792 794 796 798 800 801 803 805 807 808 810 812 813 815 816 817 819 821 823 824 825 827 829 831 832 834 836 837 838 840 841 842 843 844 845 846 847 848 848 849 850
786 788 790 792 794 796 798 800 802 803 805 807 808 810 812 813 814 816 818 820 821 823 824 826 828 830 831 833 835 836 837 838 840 841 842 843 844 845 845 846 847 848
781 784 786 788 790 793 795 797 799 800 802 803 805 807 808 810 811 813 814 816 818 820 821 823 825 827 828 830 832 833 834 836 837 839 841 841 842 843 843 844 845 846
777 779 782 785 787 790 792 793 795 796 798 799 801 803 805 806 808 809 811 813 815 817 818 820 822 823 825 827 829 830 832 833 835 837 838 839 840 840 841 842 842 843
773 775 778 781 783 786 787 789 790 792 794 795 797 799 801 802 804 806 808 809 811 813 815 817 818 820 822 824 826 827 828 830 832 834 836 837 837 838 838 839 840 841
768 770 773 776 779 781 783 785 787 788 790 792 793 795 797 799 800 802 804 806 808 810 812 813 815 816 818 820 822 823 825 827 829 831 833 834 835 835 836 837 838 839
762 766 769 772 775 777 779 781 783 784 786 788 790 791 793 795 797 798 801 803 805 807 808 810 811 813 815 817 818 820 822 824 825 828 830 831 832 832 833 834 835 836
757 761 764 767 770 772 774 776 778 780 782 784 786 788 789 791 793 795 797 799 801 803 805 807 808 810 812 813 814 816 818 820 822 823 826 827 828 829 830 831 832 833
752 755 759 761 764 767 769 771 774 776 777 779 781 784 786 787 789 791 793 795 797 799 801 803 805 806 808 810 811 812 814 816 818 819 821 823 824 825 827 828 829 830
746 750 753 755 758 761 763 766 769 771 773 775 777 779 782 784 785 787 789 791 793 795 797 799 801 803 805 806 808 809 810 812 814 815 817 818 820 821 823 825 826 826
740 744 747 749 752 755 758 761 764 766 768 770 772 774 777 779 781 783 785 787 789 791 793 795 797 799 800 802 804 805 807 809 810 812 813 814 816 817 819 821 822 823
734 737 740 743 747 750 753 756 758 761 763 765 767 770 772 774 776 778 780 782 785 787 789 791 793 795 796 798 800 802 803 804 806 808 809 810 812 813 815 817 818 819
728 731 734 738 742 745 748 751 753 756 758 761 763 765 767 769 771 774 775 777 780 782 784 786 788 790 791 793 796 798 799 800 802 804 805 807 808 809 811 812 814 815
723 727 730 734 737 740 743 746 748 751 754 756 758 760 762 764 766 769 771 773 775 777 779 781 783 784 785 787 790 793 795 796 797 799 801 803 804 805 806 808 810 811
719 722 726 729 732 735 738 741 744 747 749 751 754 756 758 760 762 764 766 768 769 771 773 775 776 777 779 781 784 787 790 792 793 795 797 798 799 801 802 803 805 806
714 717 721 724 727 730 733 736 739 742 744 747 749 751 754 755 758 759 761 763 764 766 768 769 770 771 773 775 778 781 784 787 789 790 792 793 795 796 797 798 800 801
709 713 716 719 722 725 728 731 735 738 740 743 745 747 749 751 752 754 755 758 759 761 762 763 764 765 767 770 773 776 779 782 785 786 787 788 789 790 791 793 795 796
705 708 711 714 717 720 724 727 730 733 735 738 740 742 744 746 747 749 750 752 754 755 757 758 759 760 761 764 767 770 773 777 780 781 782 782 783 784 786 787 789 791
702 704 706 710 713 717 721 723 726 728 731 734 736 738 740 741 742 744 746 747 749 751 752 753 754 754 756 759 762 765 768 772 775 777 777 777 778 779 780 782 784 786
697 699 702 706 710 714 717 719 721 723 726 729 731 733 735 736 738 740 741 742 744 746 747 748 748 749 751 753 757 760 764 767 770 772 772 772 773 774 775 776 778 780
692 696 699 703 706 710 712 714 716 718 721 724 727 729 730 732 733 734 735 738 740 741 742 742 743 745 746 748 752 755 759 762 764 766 767 767 768 769 770 772 773 775
689 692 696 699 703 705 707 709 711 713 717 719 722 724 725 726 728 729 731 733 734 736 737 737 739 741 742 744 747 750 754 756 758 760 762 762 763 765 766 766 767 769
687 690 693 696 699 700 702 704 707 710 712 715 717 719 720 722 724 725 727 728 729 731 732 734 736 737 738 739 742 745 747 750 752 755 756 756 757 759 760 761 762 764
684 687 690 693 695 697 699 702 705 708 710 712 714 715 717 719 721 722 723 723 725 727 728 730 731 732 732 732 734 737 740 744 747 750 751 751 752 754 755 755 757 759
681 684 686 689 692 695 698 701 703 705 707 709 710 712 714 715 717 718 718 719 721 722 723 724 725 726 726 725 727 730 732 737 742 744 745 746 747 748 750 751 753 754